Location: Unspecified
(0.0000°N, 0.0000°E)
Time: 10:57:57
(UTC+00:00)

Vanguard 3 - Pass Details

Date: 12 October 2022
Orbit: 509 x 3255 km, 33.3° (Epoch: 30 November)

Event Time Altitude Azimuth Distance (km) Brightness Sun altitude
Rises 20:29:27 0° 226° (SW) 7,165 12.6 -40.3°
Reaches altitude 10° 20:36:59 10° 210° (SSW) 6,192 11.9 -42.2°
Maximum altitude 20:49:19 19° 170° (S) 5,089 11.1 -45.2°
Enters shadow 20:53:52 18° 152° (SSE) 4,986 10.9 -46.3°
